Time,TemperatureF,DewpointF,PressureIn,WindDirection,WindDirectionDegrees,WindSpeedMPH,WindSpeedGustMPH,Humidity,HourlyPrecipIn,Conditions,Clouds,dailyrainin,SoftwareType,DateUTC
2013-07-01 00:04:00,65.0,63.0,29.76,SSW,202,0.0,0.0,94,0.00,,,0.00,TxWx,2013-07-01 04:04:00,
2013-07-01 00:09:00,65.0,63.0,29.76,SSE,157,1.0,1.0,94,0.00,,,0.00,TxWx,2013-07-01 04:09:00,
2013-07-01 00:14:00,65.0,63.0,29.76,SSW,202,0.0,0.0,94,0.00,,,0.00,TxWx,2013-07-01 04:14:00,
2013-07-01 00:19:00,65.0,63.0,29.76,South,180,1.0,1.0,94,0.00,,,0.00,TxWx,2013-07-01 04:19:00,
2013-07-01 00:25:00,65.0,63.0,29.76,North,0,2.0,2.0,94,0.00,,,0.00,TxWx,2013-07-01 04:25:00,
2013-07-01 00:30:00,65.0,63.0,29.76,South,180,1.0,1.0,94,0.00,,,0.00,TxWx,2013-07-01 04:30:00,
2013-07-01 00:35:00,65.0,63.0,29.76,SE,135,1.0,1.0,94,0.00,,,0.00,TxWx,2013-07-01 04:35:00,
2013-07-01 00:40:00,65.0,63.0,29.76,SE,135,0.0,0.0,94,0.00,,,0.00,TxWx,2013-07-01 04:40:00,
2013-07-01 00:45:00,65.0,63.0,29.76,South,180,0.0,0.0,94,0.00,,,0.00,TxWx,2013-07-01 04:45:00,
2013-07-01 00:50:00,65.0,63.0,29.76,SSW,202,0.0,0.0,95,0.00,,,0.00,TxWx,2013-07-01 04:50:00,
2013-07-01 00:55:00,65.0,63.0,29.76,South,180,0.0,0.0,95,0.00,,,0.00,TxWx,2013-07-01 04:55:00,
2013-07-01 01:00:00,65.0,63.0,29.76,South,180,0.0,0.0,95,0.00,,,0.00,TxWx,2013-07-01 05:00:00,
2013-07-01 01:05:00,65.0,63.0,29.76,South,180,0.0,0.0,95,0.00,,,0.00,TxWx,2013-07-01 05:05:00,
2013-07-01 01:10:00,65.0,63.0,29.76,SSE,157,0.0,0.0,95,0.00,,,0.00,TxWx,2013-07-01 05:10:00,
2013-07-01 01:16:00,65.0,63.0,29.76,SSE,157,0.0,0.0,95,0.00,,,0.00,TxWx,2013-07-01 05:16:00,
2013-07-01 01:21:00,65.0,64.0,29.76,SSE,157,0.0,0.0,95,0.00,,,0.00,TxWx,2013-07-01 05:21:00,
2013-07-01 01:26:00,65.0,64.0,29.77,South,180,0.0,0.0,95,0.00,,,0.00,TxWx,2013-07-01 05:26:00,
2013-07-01 01:31:00,65.0,64.0,29.77,South,180,0.0,0.0,95,0.00,,,0.00,TxWx,2013-07-01 05:31:00,
2013-07-01 01:36:00,65.0,64.0,29.77,South,180,0.0,0.0,95,0.00,,,0.00,TxWx,2013-07-01 05:36:00,
2013-07-01 01:41:00,64.0,63.0,29.77,SSW,202,0.0,0.0,95,0.00,,,0.00,TxWx,2013-07-01 05:41:00,
2013-07-01 01:46:00,64.0,63.0,29.77,SSE,157,0.0,0.0,95,0.00,,,0.00,TxWx,2013-07-01 05:46:00,
2013-07-01 01:51:00,64.0,63.0,29.77,South,180,0.0,0.0,95,0.00,,,0.00,TxWx,2013-07-01 05:51:00,
2013-07-01 01:56:00,64.0,63.0,29.77,SE,135,0.0,0.0,96,0.00,,,0.00,TxWx,2013-07-01 05:56:00,
2013-07-01 02:02:00,64.0,63.0,29.77,NE,45,3.0,3.0,96,0.00,,,0.00,TxWx,2013-07-01 06:02:00,
2013-07-01 02:07:00,64.0,63.0,29.77,SSE,157,1.0,2.0,96,0.00,,,0.00,TxWx,2013-07-01 06:07:00,
2013-07-01 02:12:00,64.0,63.0,29.77,SSE,157,1.0,1.0,96,0.00,,,0.00,TxWx,2013-07-01 06:12:00,
2013-07-01 02:17:00,64.0,63.0,29.77,South,180,1.0,1.0,96,0.00,,,0.00,TxWx,2013-07-01 06:17:00,
2013-07-01 02:22:00,64.0,63.0,29.77,SE,135,3.0,3.0,96,0.00,,,0.00,TxWx,2013-07-01 06:22:00,
2013-07-01 02:27:00,64.0,63.0,29.77,East,90,2.0,2.0,96,0.00,,,0.00,TxWx,2013-07-01 06:27:00,
2013-07-01 02:32:00,64.0,63.0,29.76,ESE,112,1.0,1.0,96,0.00,,,0.00,TxWx,2013-07-01 06:32:00,
2013-07-01 02:37:00,64.0,63.0,29.77,ESE,112,2.0,3.0,96,0.00,,,0.00,TxWx,2013-07-01 06:37:00,
2013-07-01 02:42:00,64.0,63.0,29.77,South,180,1.0,1.0,96,0.00,,,0.00,TxWx,2013-07-01 06:42:00,
2013-07-01 02:47:00,64.0,63.0,29.77,ENE,67,3.0,3.0,96,0.00,,,0.00,TxWx,2013-07-01 06:47:00,
2013-07-01 02:53:00,64.0,63.0,29.77,ESE,112,2.0,3.0,96,0.00,,,0.00,TxWx,2013-07-01 06:53:00,
2013-07-01 02:56:00,68.0,63.0,29.85,South,180,2.0,3.0,84,0.00,,,0.00,TxWx,2013-07-01 06:56:00,
2013-07-01 02:57:00,68.0,63.0,29.85,ESE,112,3.0,4.0,84,0.00,,,0.00,TxWx,2013-07-01 06:57:00,
2013-07-01 02:58:00,64.0,63.0,29.77,SE,135,2.0,3.0,96,0.00,,,0.00,TxWx,2013-07-01 06:58:00,
2013-07-01 02:59:00,68.0,63.0,29.85,ESE,112,4.0,5.0,84,0.00,,,0.00,TxWx,2013-07-01 06:59:00,
2013-07-01 03:03:00,64.0,63.0,29.77,ESE,112,3.0,3.0,97,0.00,,,0.00,TxWx,2013-07-01 07:03:00,
2013-07-01 03:08:00,64.0,63.0,29.77,SSE,157,1.0,1.0,97,0.00,,,0.00,TxWx,2013-07-01 07:08:00,
2013-07-01 03:13:00,64.0,63.0,29.77,SSE,157,2.0,3.0,97,0.00,,,0.00,TxWx,2013-07-01 07:13:00,
2013-07-01 03:18:00,64.0,63.0,29.77,East,90,3.0,3.0,97,0.00,,,0.00,TxWx,2013-07-01 07:18:00,
2013-07-01 03:23:00,64.0,63.0,29.77,SSE,157,3.0,3.0,97,0.00,,,0.00,TxWx,2013-07-01 07:23:00,
2013-07-01 03:28:00,64.0,63.0,29.77,ESE,112,3.0,3.0,97,0.00,,,0.00,TxWx,2013-07-01 07:28:00,
2013-07-01 03:33:00,64.0,63.0,29.77,SW,225,1.0,2.0,97,0.00,,,0.00,TxWx,2013-07-01 07:33:00,
2013-07-01 03:39:00,64.0,63.0,29.78,South,180,1.0,1.0,97,0.00,,,0.00,TxWx,2013-07-01 07:39:00,
2013-07-01 03:44:00,64.0,63.0,29.78,SE,135,2.0,2.0,97,0.00,,,0.00,TxWx,2013-07-01 07:44:00,
2013-07-01 03:49:00,64.0,63.0,29.77,East,90,2.0,3.0,97,0.00,,,0.00,TxWx,2013-07-01 07:49:00,
2013-07-01 03:54:00,64.0,63.0,29.77,SE,135,3.0,3.0,97,0.00,,,0.00,TxWx,2013-07-01 07:54:00,
2013-07-01 03:59:00,64.0,63.0,29.78,SSE,157,2.0,3.0,97,0.00,,,0.00,TxWx,2013-07-01 07:59:00,
2013-07-01 04:00:00,69.0,64.0,29.84,East,90,4.0,5.0,84,0.00,,,0.00,TxWx,2013-07-01 08:00:00,
2013-07-01 04:01:00,69.0,64.0,29.84,South,180,3.0,4.0,84,0.00,,,0.00,TxWx,2013-07-01 08:01:00,
2013-07-01 04:02:00,69.0,64.0,29.84,SE,135,6.0,6.0,84,0.00,,,0.00,TxWx,2013-07-01 08:02:00,
2013-07-01 04:03:00,69.0,64.0,29.84,SE,135,5.0,5.0,84,0.00,,,0.00,TxWx,2013-07-01 08:03:00,
2013-07-01 04:04:00,64.0,63.0,29.78,SSE,157,1.0,2.0,97,0.00,,,0.00,TxWx,2013-07-01 08:04:00,
2013-07-01 04:09:00,64.0,63.0,29.78,ESE,112,3.0,4.0,97,0.00,,,0.00,TxWx,2013-07-01 08:09:00,
2013-07-01 04:14:00,64.0,63.0,29.78,SSE,157,1.0,1.0,97,0.00,,,0.00,TxWx,2013-07-01 08:14:00,
2013-07-01 04:19:00,64.0,63.0,29.78,ENE,67,1.0,2.0,97,0.00,,,0.00,TxWx,2013-07-01 08:19:00,
2013-07-01 04:24:00,64.0,63.0,29.78,SSW,202,1.0,1.0,97,0.00,,,0.00,TxWx,2013-07-01 08:24:00,
2013-07-01 04:30:00,64.0,63.0,29.77,SSE,157,1.0,1.0,97,0.00,,,0.00,TxWx,2013-07-01 08:30:00,
2013-07-01 04:35:00,64.0,63.0,29.78,ESE,112,1.0,2.0,97,0.00,,,0.00,TxWx,2013-07-01 08:35:00,
2013-07-01 04:40:00,64.0,63.0,29.78,ESE,112,3.0,5.0,97,0.00,,,0.00,TxWx,2013-07-01 08:40:00,
2013-07-01 04:45:00,64.0,63.0,29.78,ESE,112,5.0,5.0,97,0.00,,,0.00,TxWx,2013-07-01 08:45:00,
2013-07-01 04:50:00,64.0,63.0,29.79,South,180,1.0,2.0,97,0.00,,,0.00,TxWx,2013-07-01 08:50:00,
2013-07-01 04:55:00,63.0,62.0,29.79,ENE,67,2.0,3.0,97,0.00,,,0.00,TxWx,2013-07-01 08:55:00,
2013-07-01 05:00:00,63.0,62.0,29.79,East,90,2.0,2.0,97,0.00,,,0.00,TxWx,2013-07-01 09:00:00,
2013-07-01 05:05:00,63.0,62.0,29.79,SSE,157,1.0,1.0,97,0.00,,,0.00,TxWx,2013-07-01 09:05:00,
2013-07-01 05:10:00,63.0,62.0,29.79,ESE,112,0.0,1.0,97,0.00,,,0.00,TxWx,2013-07-01 09:10:00,
2013-07-01 05:15:00,64.0,63.0,29.79,ESE,112,1.0,1.0,97,0.00,,,0.00,TxWx,2013-07-01 09:15:00,
2013-07-01 05:21:00,64.0,63.0,29.80,South,180,0.0,0.0,97,0.00,,,0.00,TxWx,2013-07-01 09:21:00,
2013-07-01 05:26:00,64.0,63.0,29.80,SE,135,1.0,2.0,97,0.00,,,0.00,TxWx,2013-07-01 09:26:00,
2013-07-01 05:37:00,64.0,63.0,29.80,South,180,0.0,0.0,97,0.00,,,0.00,TxWx,2013-07-01 09:37:00,
2013-07-01 05:42:00,64.0,63.0,29.80,SSW,202,0.0,0.0,97,0.00,,,0.00,TxWx,2013-07-01 09:42:00,
2013-07-01 05:47:00,64.0,62.0,29.80,SSW,202,0.0,0.0,97,0.00,,,0.00,TxWx,2013-07-01 09:47:00,
2013-07-01 05:52:00,64.0,63.0,29.81,SSE,157,0.0,0.0,97,0.00,,,0.00,TxWx,2013-07-01 09:52:00,
2013-07-01 05:57:00,64.0,63.0,29.81,South,180,0.0,0.0,97,0.00,,,0.00,TxWx,2013-07-01 09:57:00,
2013-07-01 06:02:00,64.0,63.0,29.81,SSE,157,0.0,1.0,97,0.00,,,0.00,TxWx,2013-07-01 10:02:00,
2013-07-01 06:07:00,64.0,63.0,29.81,SSW,202,0.0,0.0,97,0.00,,,0.00,TxWx,2013-07-01 10:07:00,
2013-07-01 06:12:00,64.0,63.0,29.81,SE,135,2.0,2.0,97,0.00,,,0.00,TxWx,2013-07-01 10:12:00,
2013-07-01 06:17:00,64.0,63.0,29.81,South,180,0.0,0.0,97,0.00,,,0.00,TxWx,2013-07-01 10:17:00,
2013-07-01 06:23:00,64.0,63.0,29.81,South,180,1.0,1.0,97,0.00,,,0.00,TxWx,2013-07-01 10:23:00,
2013-07-01 06:28:00,64.0,63.0,29.81,SE,135,1.0,1.0,97,0.00,,,0.00,TxWx,2013-07-01 10:28:00,
2013-07-01 06:33:00,64.0,63.0,29.81,SE,135,2.0,3.0,97,0.00,,,0.00,TxWx,2013-07-01 10:33:00,
2013-07-01 06:38:00,64.0,63.0,29.81,SSW,202,0.0,1.0,97,0.00,,,0.00,TxWx,2013-07-01 10:38:00,
2013-07-01 06:43:00,64.0,63.0,29.81,SSE,157,1.0,2.0,97,0.00,,,0.00,TxWx,2013-07-01 10:43:00,
2013-07-01 06:48:00,64.0,63.0,29.81,SSE,157,1.0,2.0,97,0.00,,,0.00,TxWx,2013-07-01 10:48:00,
2013-07-01 06:53:00,64.0,63.0,29.81,SE,135,1.0,3.0,97,0.00,,,0.00,TxWx,2013-07-01 10:53:00,
2013-07-01 06:58:00,64.0,63.0,29.81,SSE,157,3.0,3.0,97,0.00,,,0.00,TxWx,2013-07-01 10:58:00,
2013-07-01 07:04:00,64.0,63.0,29.82,SSE,157,1.0,1.0,97,0.00,,,0.00,TxWx,2013-07-01 11:04:00,
2013-07-01 07:09:00,64.0,63.0,29.82,SSE,157,1.0,1.0,96,0.00,,,0.00,TxWx,2013-07-01 11:09:00,
2013-07-01 07:14:00,64.0,63.0,29.82,SE,135,2.0,2.0,96,0.00,,,0.00,TxWx,2013-07-01 11:14:00,
2013-07-01 07:19:00,64.0,63.0,29.82,ESE,112,2.0,3.0,96,0.00,,,0.00,TxWx,2013-07-01 11:19:00,
2013-07-01 07:24:00,64.0,63.0,29.82,ESE,112,4.0,4.0,96,0.00,,,0.00,TxWx,2013-07-01 11:24:00,
2013-07-01 07:29:00,64.0,63.0,29.83,ESE,112,1.0,1.0,96,0.00,,,0.00,TxWx,2013-07-01 11:29:00,
2013-07-01 07:34:00,64.0,63.0,29.83,East,90,3.0,3.0,96,0.00,,,0.00,TxWx,2013-07-01 11:34:00,
2013-07-01 07:39:00,64.0,63.0,29.83,South,180,1.0,2.0,95,0.00,,,0.00,TxWx,2013-07-01 11:39:00,
2013-07-01 07:44:00,64.0,63.0,29.83,SSE,157,2.0,2.0,95,0.00,,,0.00,TxWx,2013-07-01 11:44:00,
2013-07-01 07:49:00,65.0,64.0,29.83,SSE,157,2.0,4.0,95,0.00,,,0.00,TxWx,2013-07-01 11:49:00,
2013-07-01 07:55:00,65.0,64.0,29.83,ESE,112,2.0,2.0,95,0.00,,,0.00,TxWx,2013-07-01 11:55:00,
2013-07-01 08:00:00,65.0,64.0,29.82,SE,135,3.0,3.0,95,0.00,,,0.00,TxWx,2013-07-01 12:00:00,
2013-07-01 08:05:00,65.0,63.0,29.82,SSE,157,0.0,1.0,95,0.00,,,0.00,TxWx,2013-07-01 12:05:00,
2013-07-01 08:10:00,65.0,63.0,29.82,South,180,0.0,1.0,95,0.00,,,0.00,TxWx,2013-07-01 12:10:00,
2013-07-01 08:15:00,65.0,63.0,29.83,ESE,112,1.0,1.0,95,0.00,,,0.00,TxWx,2013-07-01 12:15:00,
2013-07-01 08:20:00,65.0,63.0,29.83,South,180,1.0,1.0,95,0.00,,,0.00,TxWx,2013-07-01 12:20:00,
2013-07-01 08:25:00,65.0,63.0,29.83,ENE,67,3.0,3.0,94,0.00,,,0.00,TxWx,2013-07-01 12:25:00,
2013-07-01 08:30:00,65.0,63.0,29.83,SE,135,3.0,4.0,93,0.00,,,0.00,TxWx,2013-07-01 12:30:00,
2013-07-01 08:35:00,65.0,63.0,29.83,South,180,3.0,3.0,93,0.00,,,0.00,TxWx,2013-07-01 12:35:00,
2013-07-01 08:40:00,65.0,63.0,29.83,ESE,112,5.0,6.0,92,0.00,,,0.00,TxWx,2013-07-01 12:40:00,
2013-07-01 08:46:00,65.0,62.0,29.83,ESE,112,6.0,8.0,92,0.00,,,0.00,TxWx,2013-07-01 12:46:00,
2013-07-01 08:51:00,65.0,62.0,29.84,NE,45,3.0,4.0,91,0.00,,,0.00,TxWx,2013-07-01 12:51:00,
2013-07-01 08:56:00,66.0,63.0,29.84,East,90,6.0,7.0,91,0.00,,,0.00,TxWx,2013-07-01 12:56:00,
2013-07-01 09:01:00,66.0,63.0,29.83,SE,135,5.0,5.0,91,0.00,,,0.00,TxWx,2013-07-01 13:01:00,
2013-07-01 09:06:00,66.0,63.0,29.84,South,180,3.0,4.0,91,0.00,,,0.00,TxWx,2013-07-01 13:06:00,
2013-07-01 09:11:00,66.0,63.0,29.84,SSW,202,1.0,1.0,91,0.00,,,0.00,TxWx,2013-07-01 13:11:00,
2013-07-01 09:16:00,67.0,64.0,29.84,SE,135,2.0,3.0,91,0.00,,,0.00,TxWx,2013-07-01 13:16:00,
2013-07-01 09:21:00,67.0,64.0,29.84,ESE,112,3.0,4.0,91,0.00,,,0.00,TxWx,2013-07-01 13:21:00,
2013-07-01 09:26:00,67.0,64.0,29.84,SE,135,3.0,6.0,90,0.00,,,0.00,TxWx,2013-07-01 13:26:00,
2013-07-01 09:31:00,67.0,64.0,29.84,ESE,112,4.0,5.0,90,0.00,,,0.00,TxWx,2013-07-01 13:31:00,
2013-07-01 09:33:00,64.0,63.0,29.84,ESE,112,1.0,1.0,96,0.00,,,0.11,TxWx,2013-07-01 13:33:00,
2013-07-01 09:34:00,64.0,63.0,29.84,SSE,157,1.0,1.0,96,0.00,,,0.11,TxWx,2013-07-01 13:34:00,
2013-07-01 09:35:00,64.0,63.0,29.84,ESE,112,3.0,4.0,96,0.00,,,0.11,TxWx,2013-07-01 13:35:00,
2013-07-01 09:36:00,67.0,64.0,29.84,SE,135,5.0,5.0,89,0.00,,,0.00,TxWx,2013-07-01 13:36:00,
2013-07-01 09:37:00,64.0,63.0,29.84,SSE,157,1.0,1.0,96,0.00,,,0.12,TxWx,2013-07-01 13:37:00,
2013-07-01 09:42:00,67.0,63.0,29.84,South,180,3.0,5.0,89,0.00,,,0.00,TxWx,2013-07-01 13:42:00,
2013-07-01 09:47:00,67.0,63.0,29.84,ESE,112,5.0,5.0,88,0.00,,,0.00,TxWx,2013-07-01 13:47:00,
2013-07-01 09:52:00,68.0,64.0,29.84,East,90,5.0,5.0,87,0.00,,,0.00,TxWx,2013-07-01 13:52:00,
2013-07-01 09:57:00,68.0,64.0,29.84,ENE,67,3.0,4.0,87,0.00,,,0.00,TxWx,2013-07-01 13:57:00,
2013-07-01 10:02:00,68.0,64.0,29.84,ESE,112,5.0,6.0,86,0.00,,,0.00,TxWx,2013-07-01 14:02:00,
2013-07-01 10:07:00,68.0,64.0,29.84,ESE,112,5.0,5.0,86,0.00,,,0.00,TxWx,2013-07-01 14:07:00,
2013-07-01 10:12:00,69.0,65.0,29.84,East,90,3.0,3.0,87,0.00,,,0.00,TxWx,2013-07-01 14:12:00,
2013-07-01 10:17:00,69.0,65.0,29.84,SSE,157,3.0,5.0,86,0.00,,,0.00,TxWx,2013-07-01 14:17:00,
2013-07-01 10:22:00,69.0,64.0,29.84,SSW,202,1.0,2.0,85,0.00,,,0.00,TxWx,2013-07-01 14:22:00,
2013-07-01 10:28:00,69.0,64.0,29.84,ESE,112,4.0,4.0,85,0.00,,,0.00,TxWx,2013-07-01 14:28:00,
2013-07-01 10:33:00,70.0,65.0,29.84,ESE,112,4.0,5.0,84,0.00,,,0.00,TxWx,2013-07-01 14:33:00,
2013-07-01 10:38:00,70.0,65.0,29.84,ESE,112,4.0,5.0,83,0.00,,,0.00,TxWx,2013-07-01 14:38:00,
2013-07-01 10:43:00,70.0,65.0,29.84,ESE,112,2.0,3.0,83,0.00,,,0.00,TxWx,2013-07-01 14:43:00,
2013-07-01 10:48:00,70.0,64.0,29.84,SSW,202,3.0,6.0,82,0.00,,,0.00,TxWx,2013-07-01 14:48:00,
2013-07-01 10:53:00,70.0,64.0,29.84,East,90,6.0,6.0,82,0.00,,,0.00,TxWx,2013-07-01 14:53:00,
2013-07-01 10:58:00,70.0,64.0,29.84,SSW,202,1.0,2.0,82,0.00,,,0.00,TxWx,2013-07-01 14:58:00,
2013-07-01 11:03:00,70.0,64.0,29.85,ESE,112,3.0,3.0,82,0.00,,,0.00,TxWx,2013-07-01 15:03:00,
2013-07-01 11:08:00,69.0,63.0,29.85,South,180,3.0,5.0,81,0.00,,,0.00,TxWx,2013-07-01 15:08:00,
2013-07-01 11:14:00,69.0,63.0,29.85,SW,225,0.0,1.0,82,0.00,,,0.00,TxWx,2013-07-01 15:14:00,
2013-07-01 11:19:00,69.0,63.0,29.85,SSW,202,1.0,3.0,83,0.00,,,0.00,TxWx,2013-07-01 15:19:00,
2013-07-01 11:24:00,69.0,63.0,29.85,SSE,157,5.0,5.0,82,0.00,,,0.00,TxWx,2013-07-01 15:24:00,
2013-07-01 11:29:00,69.0,63.0,29.85,SE,135,3.0,3.0,83,0.00,,,0.00,TxWx,2013-07-01 15:29:00,
2013-07-01 11:34:00,68.0,63.0,29.85,ESE,112,2.0,4.0,84,0.00,,,0.00,TxWx,2013-07-01 15:34:00,
2013-07-01 11:39:00,68.0,63.0,29.85,ESE,112,3.0,3.0,84,0.00,,,0.00,TxWx,2013-07-01 15:39:00,
2013-07-01 11:44:00,68.0,63.0,29.85,NE,45,3.0,6.0,83,0.00,,,0.00,TxWx,2013-07-01 15:44:00,
2013-07-01 11:49:00,68.0,63.0,29.85,SE,135,5.0,6.0,83,0.00,,,0.00,TxWx,2013-07-01 15:49:00,
2013-07-01 12:00:00,68.0,63.0,29.85,ESE,112,3.0,4.0,84,0.00,,,0.00,TxWx,2013-07-01 16:00:00,
2013-07-01 12:05:00,69.0,64.0,29.85,SSW,202,0.0,1.0,85,0.00,,,0.00,TxWx,2013-07-01 16:05:00,
2013-07-01 12:10:00,69.0,64.0,29.85,South,180,1.0,3.0,85,0.00,,,0.00,TxWx,2013-07-01 16:10:00,
2013-07-01 12:15:00,69.0,64.0,29.85,South,180,1.0,2.0,84,0.00,,,0.00,TxWx,2013-07-01 16:15:00,
2013-07-01 12:20:00,69.0,64.0,29.85,ESE,112,3.0,5.0,84,0.00,,,0.00,TxWx,2013-07-01 16:20:00,
2013-07-01 12:26:00,68.0,63.0,29.85,SSW,202,3.0,3.0,84,0.00,,,0.00,TxWx,2013-07-01 16:26:00,
2013-07-01 12:31:00,68.0,63.0,29.85,SE,135,3.0,3.0,84,0.00,,,0.00,TxWx,2013-07-01 16:31:00,
2013-07-01 12:36:00,68.0,63.0,29.85,ESE,112,5.0,5.0,85,0.00,,,0.00,TxWx,2013-07-01 16:36:00,
2013-07-01 12:41:00,68.0,63.0,29.85,East,90,2.0,5.0,84,0.00,,,0.00,TxWx,2013-07-01 16:41:00,
2013-07-01 12:46:00,68.0,63.0,29.85,SE,135,3.0,5.0,85,0.00,,,0.00,TxWx,2013-07-01 16:46:00,
2013-07-01 12:51:00,68.0,63.0,29.84,SE,135,5.0,5.0,85,0.00,,,0.00,TxWx,2013-07-01 16:51:00,
2013-07-01 12:56:00,69.0,64.0,29.84,ESE,112,3.0,3.0,85,0.00,,,0.00,TxWx,2013-07-01 16:56:00,
2013-07-01 13:04:00,69.0,64.0,29.84,SE,135,6.0,7.0,84,0.00,,,0.00,TxWx,2013-07-01 17:04:00,
2013-07-01 13:09:00,68.0,63.0,29.85,SSE,157,3.0,3.0,84,0.00,,,0.00,TxWx,2013-07-01 17:09:00,
2013-07-01 13:14:00,68.0,63.0,29.85,ESE,112,3.0,4.0,84,0.00,,,0.00,TxWx,2013-07-01 17:14:00,
2013-07-01 13:19:00,68.0,63.0,29.85,ESE,112,3.0,4.0,84,0.00,,,0.00,TxWx,2013-07-01 17:19:00,
2013-07-01 13:25:00,67.0,62.0,29.85,East,90,3.0,5.0,84,0.00,,,0.00,TxWx,2013-07-01 17:25:00,
2013-07-01 13:30:00,67.0,62.0,29.85,SSE,157,3.0,3.0,85,0.00,,,0.00,TxWx,2013-07-01 17:30:00,
2013-07-01 13:35:00,67.0,62.0,29.84,SSE,157,1.0,3.0,86,0.00,,,0.00,TxWx,2013-07-01 17:35:00,
2013-07-01 13:40:00,66.0,62.0,29.85,South,180,3.0,3.0,87,0.00,,,0.00,TxWx,2013-07-01 17:40:00,
2013-07-01 13:45:00,66.0,62.0,29.85,SSE,157,3.0,3.0,88,0.00,,,0.00,TxWx,2013-07-01 17:45:00,
2013-07-01 13:50:00,66.0,62.0,29.85,SSW,202,2.0,3.0,89,0.00,,,0.00,TxWx,2013-07-01 17:50:00,
2013-07-01 13:55:00,66.0,63.0,29.85,ESE,112,1.0,1.0,89,0.00,,,0.00,TxWx,2013-07-01 17:55:00,
2013-07-01 14:00:00,66.0,63.0,29.85,SSE,157,1.0,1.0,90,0.00,,,0.00,TxWx,2013-07-01 18:00:00,
2013-07-01 14:05:00,66.0,63.0,29.85,South,180,1.0,2.0,90,0.00,,,0.00,TxWx,2013-07-01 18:05:00,
2013-07-01 14:10:00,65.0,62.0,29.85,SE,135,2.0,3.0,90,0.60,,,0.01,TxWx,2013-07-01 18:10:00,
2013-07-01 14:16:00,65.0,62.0,29.85,South,180,1.0,1.0,90,0.60,,,0.01,TxWx,2013-07-01 18:16:00,
2013-07-01 14:21:00,65.0,62.0,29.85,SE,135,1.0,1.0,91,0.00,,,0.01,TxWx,2013-07-01 18:21:00,
2013-07-01 14:26:00,65.0,62.0,29.85,South,180,1.0,1.0,91,0.00,,,0.01,TxWx,2013-07-01 18:26:00,
2013-07-01 14:31:00,65.0,62.0,29.85,South,180,1.0,2.0,92,0.00,,,0.01,TxWx,2013-07-01 18:31:00,
2013-07-01 14:36:00,65.0,62.0,29.85,SE,135,1.0,1.0,92,0.00,,,0.01,TxWx,2013-07-01 18:36:00,
2013-07-01 14:41:00,65.0,63.0,29.85,South,180,0.0,0.0,92,0.00,,,0.01,TxWx,2013-07-01 18:41:00,
2013-07-01 14:46:00,65.0,63.0,29.85,SE,135,1.0,1.0,92,0.00,,,0.01,TxWx,2013-07-01 18:46:00,
2013-07-01 14:51:00,66.0,64.0,29.85,WSW,247,1.0,1.0,92,0.00,,,0.01,TxWx,2013-07-01 18:51:00,
2013-07-01 14:56:00,66.0,64.0,29.85,South,180,0.0,0.0,93,0.00,,,0.01,TxWx,2013-07-01 18:56:00,
2013-07-01 15:00:00,61.0,61.0,29.87,SSW,202,0.0,1.0,99,0.00,,,0.00,TxWx,2013-07-01 19:00:00,
2013-07-01 15:01:00,66.0,64.0,29.85,SE,135,3.0,3.0,93,0.00,,,0.01,TxWx,2013-07-01 19:01:00,
2013-07-01 15:02:00,61.0,61.0,29.87,SW,225,2.0,2.0,99,0.00,,,0.00,TxWx,2013-07-01 19:02:00,
2013-07-01 15:03:00,61.0,61.0,29.87,WSW,247,2.0,2.0,99,0.00,,,0.00,TxWx,2013-07-01 19:03:00,
2013-07-01 15:07:00,66.0,64.0,29.85,SE,135,3.0,3.0,93,0.00,,,0.01,TxWx,2013-07-01 19:07:00,
2013-07-01 15:12:00,66.0,64.0,29.85,SE,135,1.0,2.0,93,0.00,,,0.01,TxWx,2013-07-01 19:12:00,
2013-07-01 15:17:00,66.0,64.0,29.85,SSW,202,0.0,0.0,93,0.00,,,0.01,TxWx,2013-07-01 19:17:00,
2013-07-01 15:22:00,66.0,64.0,29.85,SSE,157,1.0,2.0,93,0.00,,,0.01,TxWx,2013-07-01 19:22:00,
2013-07-01 15:27:00,66.0,64.0,29.85,SE,135,3.0,3.0,93,0.00,,,0.01,TxWx,2013-07-01 19:27:00,
2013-07-01 15:32:00,67.0,65.0,29.85,SE,135,1.0,3.0,92,0.00,,,0.01,TxWx,2013-07-01 19:32:00,
2013-07-01 15:37:00,67.0,65.0,29.85,SSE,157,1.0,1.0,92,0.00,,,0.01,TxWx,2013-07-01 19:37:00,
2013-07-01 15:42:00,67.0,65.0,29.85,South,180,1.0,1.0,92,0.00,,,0.01,TxWx,2013-07-01 19:42:00,
2013-07-01 15:47:00,67.0,64.0,29.85,ESE,112,4.0,4.0,92,0.00,,,0.01,TxWx,2013-07-01 19:47:00,
2013-07-01 15:50:00,61.0,61.0,29.87,SW,225,1.0,1.0,99,0.00,,,0.00,TxWx,2013-07-01 19:50:00,
2013-07-01 15:52:00,67.0,64.0,29.85,East,90,2.0,2.0,91,0.00,,,0.01,TxWx,2013-07-01 19:52:00,
2013-07-01 15:57:00,67.0,64.0,29.85,NW,315,1.0,2.0,91,0.00,,,0.01,TxWx,2013-07-01 19:57:00,
2013-07-01 16:03:00,67.0,64.0,29.85,SSE,157,1.0,1.0,91,0.00,,,0.01,TxWx,2013-07-01 20:03:00,
2013-07-01 16:08:00,67.0,64.0,29.85,SSE,157,0.0,0.0,90,0.00,,,0.01,TxWx,2013-07-01 20:08:00,
2013-07-01 16:13:00,67.0,64.0,29.85,ESE,112,3.0,3.0,90,0.00,,,0.01,TxWx,2013-07-01 20:13:00,
2013-07-01 16:18:00,67.0,64.0,29.85,South,180,0.0,0.0,90,0.00,,,0.01,TxWx,2013-07-01 20:18:00,
2013-07-01 16:23:00,67.0,64.0,29.85,ESE,112,1.0,2.0,90,0.00,,,0.01,TxWx,2013-07-01 20:23:00,
2013-07-01 16:28:00,67.0,64.0,29.85,ESE,112,2.0,2.0,90,0.00,,,0.01,TxWx,2013-07-01 20:28:00,
2013-07-01 16:30:00,61.0,61.0,29.88,SSW,202,1.0,1.0,99,0.00,,,0.01,TxWx,2013-07-01 20:30:00,
2013-07-01 16:31:00,61.0,61.0,29.88,South,180,2.0,2.0,99,0.00,,,0.01,TxWx,2013-07-01 20:31:00,
2013-07-01 16:33:00,67.0,64.0,29.85,South,180,1.0,2.0,90,0.00,,,0.01,TxWx,2013-07-01 20:33:00,
2013-07-01 16:38:00,67.0,64.0,29.85,SE,135,2.0,2.0,90,0.00,,,0.01,TxWx,2013-07-01 20:38:00,
2013-07-01 16:43:00,67.0,64.0,29.85,SSW,202,0.0,0.0,90,0.00,,,0.01,TxWx,2013-07-01 20:43:00,
2013-07-01 16:45:00,61.0,61.0,29.88,SSW,202,0.0,0.0,99,0.00,,,0.01,TxWx,2013-07-01 20:45:00,
2013-07-01 16:48:00,67.0,64.0,29.85,South,180,0.0,0.0,90,0.00,,,0.01,TxWx,2013-07-01 20:48:00,
2013-07-01 16:53:00,67.0,64.0,29.85,South,180,0.0,0.0,90,0.00,,,0.01,TxWx,2013-07-01 20:53:00,
2013-07-01 16:59:00,67.0,64.0,29.85,South,180,1.0,1.0,90,0.00,,,0.01,TxWx,2013-07-01 20:59:00,
2013-07-01 17:04:00,66.0,63.0,29.85,South,180,0.0,0.0,90,0.00,,,0.02,TxWx,2013-07-01 21:04:00,
2013-07-01 17:09:00,66.0,63.0,29.85,SW,225,0.0,1.0,90,0.00,,,0.03,TxWx,2013-07-01 21:09:00,
2013-07-01 17:14:00,66.0,63.0,29.85,South,180,0.0,1.0,91,0.60,,,0.03,TxWx,2013-07-01 21:14:00,
2013-07-01 17:19:00,65.0,62.0,29.85,ESE,112,2.0,2.0,91,0.60,,,0.04,TxWx,2013-07-01 21:19:00,
2013-07-01 17:24:00,65.0,62.0,29.84,SSW,202,1.0,2.0,92,0.60,,,0.05,TxWx,2013-07-01 21:24:00,
2013-07-01 17:29:00,65.0,63.0,29.84,East,90,3.0,4.0,92,0.60,,,0.05,TxWx,2013-07-01 21:29:00,
2013-07-01 17:30:00,60.0,60.0,29.88,SSE,157,1.0,1.0,99,0.00,,,0.03,TxWx,2013-07-01 21:30:00,
2013-07-01 17:31:00,60.0,60.0,29.88,SSE,157,1.0,1.0,99,0.00,,,0.03,TxWx,2013-07-01 21:31:00,
2013-07-01 17:32:00,60.0,60.0,29.88,SE,135,1.0,2.0,99,0.00,,,0.03,TxWx,2013-07-01 21:32:00,
2013-07-01 17:33:00,60.0,60.0,29.88,South,180,1.0,1.0,99,0.00,,,0.03,TxWx,2013-07-01 21:33:00,
2013-07-01 17:34:00,65.0,63.0,29.84,South,180,1.0,1.0,93,0.60,,,0.07,TxWx,2013-07-01 21:34:00,
2013-07-01 17:39:00,64.0,62.0,29.84,SSE,157,2.0,2.0,93,0.60,,,0.07,TxWx,2013-07-01 21:39:00,
2013-07-01 17:44:00,64.0,62.0,29.84,South,180,1.0,1.0,94,0.60,,,0.08,TxWx,2013-07-01 21:44:00,
2013-07-01 17:49:00,64.0,62.0,29.83,NNE,22,1.0,2.0,94,0.60,,,0.08,TxWx,2013-07-01 21:49:00,
2013-07-01 17:55:00,64.0,62.0,29.83,SE,135,2.0,3.0,95,0.60,,,0.09,TxWx,2013-07-01 21:55:00,
2013-07-01 18:00:00,64.0,62.0,29.84,ESE,112,2.0,2.0,95,0.60,,,0.09,TxWx,2013-07-01 22:00:00,
2013-07-01 18:05:00,64.0,63.0,29.84,South,180,1.0,2.0,95,0.60,,,0.09,TxWx,2013-07-01 22:05:00,
2013-07-01 18:10:00,64.0,63.0,29.84,SSE,157,1.0,1.0,95,0.60,,,0.09,TxWx,2013-07-01 22:10:00,
2013-07-01 18:15:00,64.0,63.0,29.83,SSE,157,1.0,1.0,95,0.00,,,0.10,TxWx,2013-07-01 22:15:00,
2013-07-01 18:20:00,64.0,63.0,29.84,SE,135,1.0,1.0,96,0.00,,,0.11,TxWx,2013-07-01 22:20:00,
2013-07-01 18:25:00,64.0,63.0,29.84,SSW,202,1.0,1.0,96,0.60,,,0.11,TxWx,2013-07-01 22:25:00,
2013-07-01 18:30:00,64.0,63.0,29.84,SE,135,1.0,1.0,96,0.00,,,0.11,TxWx,2013-07-01 22:30:00,
2013-07-01 18:38:00,64.0,63.0,29.84,SE,135,2.0,2.0,96,0.00,,,0.12,TxWx,2013-07-01 22:38:00,
2013-07-01 18:43:00,64.0,63.0,29.84,SSE,157,2.0,2.0,96,0.60,,,0.15,TxWx,2013-07-01 22:43:00,
2013-07-01 18:48:00,64.0,63.0,29.84,SSE,157,1.0,2.0,96,0.60,,,0.17,TxWx,2013-07-01 22:48:00,
2013-07-01 18:53:00,64.0,63.0,29.85,South,180,2.0,3.0,96,0.60,,,0.19,TxWx,2013-07-01 22:53:00,
2013-07-01 18:58:00,63.0,62.0,29.85,South,180,1.0,2.0,96,0.60,,,0.19,TxWx,2013-07-01 22:58:00,
2013-07-01 19:03:00,63.0,62.0,29.85,South,180,0.0,1.0,96,0.60,,,0.21,TxWx,2013-07-01 23:03:00,
2013-07-01 19:08:00,63.0,62.0,29.85,SSW,202,0.0,0.0,97,0.60,,,0.23,TxWx,2013-07-01 23:08:00,
2013-07-01 19:13:00,63.0,62.0,29.85,SE,135,0.0,0.0,97,0.60,,,0.25,TxWx,2013-07-01 23:13:00,
2013-07-01 19:18:00,63.0,62.0,29.85,SE,135,0.0,0.0,97,0.60,,,0.26,TxWx,2013-07-01 23:18:00,
2013-07-01 19:23:00,63.0,62.0,29.85,ESE,112,0.0,0.0,97,0.60,,,0.29,TxWx,2013-07-01 23:23:00,
2013-07-01 19:28:00,63.0,62.0,29.85,South,180,1.0,1.0,97,0.60,,,0.31,TxWx,2013-07-01 23:28:00,
2013-07-01 19:33:00,63.0,62.0,29.85,SSE,157,1.0,1.0,97,0.60,,,0.34,TxWx,2013-07-01 23:33:00,
2013-07-01 19:38:00,63.0,62.0,29.85,SSE,157,1.0,1.0,97,0.60,,,0.37,TxWx,2013-07-01 23:38:00,
2013-07-01 19:43:00,63.0,62.0,29.84,ESE,112,3.0,4.0,97,0.60,,,0.39,TxWx,2013-07-01 23:43:00,
2013-07-01 19:49:00,63.0,62.0,29.84,ESE,112,3.0,4.0,97,0.60,,,0.41,TxWx,2013-07-01 23:49:00,
2013-07-01 19:54:00,63.0,62.0,29.84,SE,135,2.0,3.0,97,0.60,,,0.43,TxWx,2013-07-01 23:54:00,
2013-07-01 19:59:00,62.0,61.0,29.84,SSE,157,1.0,1.0,97,0.60,,,0.45,TxWx,2013-07-01 23:59:00,
2013-07-01 20:04:00,62.0,61.0,29.85,ESE,112,2.0,3.0,97,0.60,,,0.46,TxWx,2013-07-02 00:04:00,
2013-07-01 20:09:00,62.0,61.0,29.85,SSE,157,1.0,1.0,97,0.60,,,0.48,TxWx,2013-07-02 00:09:00,
2013-07-01 20:14:00,62.0,61.0,29.85,SSE,157,1.0,1.0,97,0.60,,,0.51,TxWx,2013-07-02 00:14:00,
2013-07-01 20:19:00,62.0,61.0,29.85,NNE,22,1.0,1.0,97,0.60,,,0.54,TxWx,2013-07-02 00:19:00,
2013-07-01 20:24:00,62.0,61.0,29.85,South,180,0.0,0.0,98,0.60,,,0.55,TxWx,2013-07-02 00:24:00,
2013-07-01 20:29:00,62.0,61.0,29.85,SW,225,0.0,1.0,98,0.60,,,0.58,TxWx,2013-07-02 00:29:00,
2013-07-01 20:34:00,62.0,61.0,29.86,West,270,1.0,1.0,98,0.60,,,0.58,TxWx,2013-07-02 00:34:00,
2013-07-01 20:39:00,62.0,61.0,29.86,SSE,157,1.0,2.0,98,0.60,,,0.59,TxWx,2013-07-02 00:39:00,
2013-07-01 20:45:00,62.0,61.0,29.86,SE,135,2.0,2.0,98,0.60,,,0.61,TxWx,2013-07-02 00:45:00,
2013-07-01 20:50:00,62.0,61.0,29.86,SE,135,1.0,2.0,98,0.60,,,0.65,TxWx,2013-07-02 00:50:00,
2013-07-01 20:55:00,62.0,61.0,29.87,West,270,5.0,5.0,98,0.60,,,0.66,TxWx,2013-07-02 00:55:00,
2013-07-01 21:00:00,62.0,61.0,29.87,SSW,202,2.0,3.0,98,0.60,,,0.67,TxWx,2013-07-02 01:00:00,
2013-07-01 21:05:00,62.0,61.0,29.87,WNW,292,1.0,1.0,98,0.60,,,0.70,TxWx,2013-07-02 01:05:00,
2013-07-01 21:10:00,62.0,61.0,29.87,South,180,1.0,1.0,98,0.60,,,0.74,TxWx,2013-07-02 01:10:00,
2013-07-01 21:15:00,62.0,61.0,29.87,NW,315,1.0,1.0,98,0.60,,,0.76,TxWx,2013-07-02 01:15:00,
2013-07-01 21:20:00,62.0,61.0,29.87,South,180,0.0,1.0,98,0.60,,,0.77,TxWx,2013-07-02 01:20:00,
2013-07-01 21:25:00,62.0,61.0,29.87,SSW,202,1.0,2.0,98,0.60,,,0.77,TxWx,2013-07-02 01:25:00,
2013-07-01 21:30:00,62.0,61.0,29.88,West,270,2.0,3.0,98,0.00,,,0.77,TxWx,2013-07-02 01:30:00,
2013-07-01 21:35:00,62.0,61.0,29.88,SSW,202,3.0,3.0,98,0.00,,,0.77,TxWx,2013-07-02 01:35:00,
2013-07-01 21:40:00,62.0,61.0,29.87,East,90,1.0,1.0,98,0.60,,,0.78,TxWx,2013-07-02 01:40:00,
2013-07-01 21:46:00,62.0,61.0,29.87,SSW,202,1.0,2.0,98,0.60,,,0.78,TxWx,2013-07-02 01:46:00,
2013-07-01 21:51:00,61.0,60.0,29.87,SSW,202,0.0,0.0,98,0.60,,,0.79,TxWx,2013-07-02 01:51:00,
2013-07-01 21:56:00,61.0,60.0,29.88,SW,225,1.0,1.0,98,0.60,,,0.80,TxWx,2013-07-02 01:56:00,
2013-07-01 22:01:00,62.0,61.0,29.88,SSW,202,1.0,1.0,98,0.60,,,0.80,TxWx,2013-07-02 02:01:00,
2013-07-01 22:06:00,62.0,61.0,29.88,WSW,247,2.0,3.0,98,0.60,,,0.80,TxWx,2013-07-02 02:06:00,
2013-07-01 22:11:00,62.0,61.0,29.88,WSW,247,1.0,1.0,98,0.00,,,0.80,TxWx,2013-07-02 02:11:00,
2013-07-01 22:16:00,62.0,61.0,29.88,SSW,202,0.0,0.0,98,0.00,,,0.81,TxWx,2013-07-02 02:16:00,
2013-07-01 22:21:00,62.0,61.0,29.88,SW,225,1.0,1.0,98,0.60,,,0.81,TxWx,2013-07-02 02:21:00,
2013-07-01 22:26:00,62.0,61.0,29.88,SSW,202,1.0,1.0,98,0.60,,,0.82,TxWx,2013-07-02 02:26:00,
2013-07-01 22:31:00,62.0,61.0,29.88,SSW,202,0.0,0.0,98,0.60,,,0.82,TxWx,2013-07-02 02:31:00,
2013-07-01 22:37:00,62.0,61.0,29.88,South,180,0.0,0.0,98,0.60,,,0.83,TxWx,2013-07-02 02:37:00,
2013-07-01 22:42:00,62.0,62.0,29.88,SW,225,0.0,0.0,99,0.60,,,0.84,TxWx,2013-07-02 02:42:00,
2013-07-01 22:47:00,62.0,62.0,29.88,SSW,202,0.0,0.0,99,0.60,,,0.88,TxWx,2013-07-02 02:47:00,
2013-07-01 22:52:00,62.0,62.0,29.87,SSE,157,0.0,0.0,99,0.60,,,0.95,TxWx,2013-07-02 02:52:00,
2013-07-01 22:57:00,62.0,62.0,29.87,SSE,157,0.0,0.0,99,0.60,,,0.99,TxWx,2013-07-02 02:57:00,
2013-07-01 23:02:00,62.0,62.0,29.87,South,180,0.0,0.0,99,0.60,,,1.01,TxWx,2013-07-02 03:02:00,
2013-07-01 23:07:00,61.0,61.0,29.87,SSE,157,1.0,1.0,99,0.60,,,1.04,TxWx,2013-07-02 03:07:00,
2013-07-01 23:12:00,61.0,61.0,29.87,South,180,0.0,0.0,99,0.60,,,1.05,TxWx,2013-07-02 03:12:00,
2013-07-01 23:17:00,61.0,61.0,29.87,SSE,157,0.0,1.0,99,0.60,,,1.05,TxWx,2013-07-02 03:17:00,
2013-07-01 23:22:00,61.0,61.0,29.87,SSE,157,2.0,2.0,99,0.60,,,1.06,TxWx,2013-07-02 03:22:00,
2013-07-01 23:27:00,61.0,61.0,29.87,SSE,157,1.0,1.0,99,0.60,,,1.07,TxWx,2013-07-02 03:27:00,
2013-07-01 23:32:00,61.0,61.0,29.87,SSW,202,0.0,0.0,99,0.60,,,1.09,TxWx,2013-07-02 03:32:00,
2013-07-01 23:38:00,61.0,61.0,29.87,South,180,1.0,1.0,99,0.60,,,1.09,TxWx,2013-07-02 03:38:00,
2013-07-01 23:43:00,61.0,61.0,29.87,East,90,1.0,1.0,99,0.60,,,1.09,TxWx,2013-07-02 03:43:00,
2013-07-01 23:48:00,61.0,61.0,29.87,South,180,0.0,0.0,99,0.60,,,1.09,TxWx,2013-07-02 03:48:00,
2013-07-01 23:53:00,61.0,61.0,29.87,South,180,0.0,0.0,99,0.60,,,1.10,TxWx,2013-07-02 03:53:00,
2013-07-01 23:58:00,61.0,61.0,29.87,South,180,0.0,0.0,99,0.60,,,1.10,TxWx,2013-07-02 03:58:00,